[[{"header":{"parameterUnit":"m.s-1","parameterCategory":1,"la1":30.2991,"la2":30.254,"lo1":-89.0895,"lo2":-89.0444,"dy":0.0017,"dx":0.0017,"nx":28,"ny":28,"refTime":"2024-10-15T21:00:00:Z","depth":0,"parameterNumber":2,"parameterNumberName":"U-component_of_WINDS"},"data":[0,0,0,0,0,0,0,0,0,0,0,0,0,0,0,0,0,0,0,0,0,0,0,0,0,0,0,0,0,0,0,0,0,0,0,0,0,0,0,0,0,0,0,0,0,0,0,0,0,0,0,0,0,0,0,0,0,0,-2.8916,-2.8915,0,-2.8884,-2.8884,-2.8884,-2.8785,-2.8783,-2.8781,-2.8779,-2.8749,-2.875,-2.8752,0,0,0,0,0,0,0,0,0,0,0,0,0,-2.8894,-2.8894,-2.8916,-2.8915,-2.8915,-2.8884,-2.8884,-2.8884,-2.8786,-2.8783,-2.878,-2.8778,-2.8749,-2.875,-2.8752,0,0,0,0,0,0,0,0,0,0,0,0,0,-2.8887,-2.8895,-2.8916,-2.8862,-2.8857,-2.8885,-2.8884,-2.8884,-2.8786,-2.8783,-2.878,-2.8777,-2.8748,-2.875,-2.8752,-2.8829,0,0,-2.8758,-2.8758,0,0,0,0,0,0,0,0,-2.8887,-2.8888,-2.8871,-2.8866,-2.886,-2.8835,-2.8865,-2.8865,-2.8787,-2.8813,-2.8779,-2.8775,-2.8781,-2.878,-2.8781,-2.8828,-2.8826,-2.8758,-2.8759,-2.876,-2.876,0,0,0,0,0,0,0,-2.8888,-2.8889,-2.8903,-2.8871,-2.8864,-2.8841,-2.8836,-2.8865,-2.8816,-2.8811,-2.8804,-2.8801,-2.8777,-2.878,-2.878,-2.8826,-2.8758,-2.8759,-2.8761,-2.8761,-2.8934,-2.8938,0,0,0,0,0,0,-2.8896,-2.889,-2.8904,-2.8902,-2.8866,-2.8844,-2.8839,-2.8847,-2.8815,-2.8807,-2.8804,-2.8797,-2.8778,-2.8778,-2.8778,-2.8866,-2.876,-2.8762,-2.8763,-2.8931,-2.8935,-2.8939,0,0,0,0,0,0,-2.8896,-2.8898,-2.8906,-2.8894,-2.8893,-2.8848,-2.8858,-2.8848,-2.885,-2.881,-2.8801,-2.8815,-2.8775,-2.8776,-2.8817,-2.8863,-2.8762,-2.8764,-2.8927,-2.8932,-2.8937,-2.9042,0,0,0,0,0,0,-2.8895,-2.8899,-2.8926,-2.8895,-2.8894,-2.8944,-2.886,-2.885,-2.8853,-2.8843,-2.8818,-2.8811,-2.8773,-2.8815,-2.8819,-2.8864,-2.8766,-2.8923,-2.8929,-2.8935,-2.9034,-2.905,-2.9064,0,0,0,0,0,-2.8895,-2.8958,-2.8928,-2.8931,-2.8928,-2.8947,-2.8946,-2.8901,-2.8857,-2.8885,-2.886,-2.8811,-2.8858,-2.882,-2.8824,-2.887,-2.8919,-2.8927,-2.8935,-2.9027,-2.9047,-2.9063,0,0,0,0,0,0,-2.8996,-2.8952,-2.892,-2.8974,-2.8965,-2.893,-2.8964,-2.8923,-2.8927,-2.8917,-2.8862,-2.8857,-2.8906,-2.8892,-2.8851,-2.8943,-2.8881,-2.889,-2.895,-2.8968,-2.8982,-2.8984,-2.8767,0,0,0,0,0,-2.9024,-2.9042,-2.9004,-2.9056,-2.9053,-2.901,-2.9016,-2.8982,-2.8971,-2.8967,-2.8944,-2.8936,-2.8948,-2.8958,-2.8967,-2.9033,-2.9025,-2.9067,-2.9081,-2.9094,-2.9101,-2.9135,-2.9152,-2.8965,-2.8965,-2.8965,0,0,-2.9083,-2.9062,-2.9077,-2.9076,-2.9064,-2.9085,-2.9007,-2.9032,-2.9047,-2.8971,-2.9007,-2.8992,-2.8979,-2.9032,-2.9055,-2.9022,-2.9152,-2.9104,-2.9114,-2.9115,-2.9145,-2.9162,-2.9178,-2.897,-2.8969,-2.8968,0,0,-2.9201,-2.9187,-2.9228,-2.9219,-2.9203,-2.9174,-2.9184,-2.9157,-2.9142,-2.9179,-2.9122,-2.914,-2.9163,-2.9156,-2.9155,-2.9273,-2.9228,-2.9278,-2.9354,-2.9387,-2.9402,-2.9415,-2.9455,-2.9471,-2.9286,-2.9286,-2.9287,0,-2.9276,-2.9303,-2.9255,-2.9283,-2.9284,-2.9217,-2.9258,-2.9252,-2.9241,-2.9244,-2.9208,-2.9235,-2.9222,-2.9273,-2.9301,-2.9304,-2.9314,-2.9279,-2.9404,-2.9416,-2.9427,-2.9465,-2.9481,-2.9292,-2.9292,-2.9291,-2.929,0,-2.9396,-2.9417,-2.9453,-2.9442,-2.9448,-2.9484,-2.9441,-2.9453,-2.9419,-2.9395,-2.9433,-2.9415,-2.9419,-2.943,-2.9397,-2.9476,-2.9456,-2.9414,-2.9349,-2.9452,-2.9487,-2.9501,-2.9301,-2.9299,-2.9297,-2.9295,0,0,-2.9573,-2.9537,-2.9551,-2.9545,-2.9524,-2.9539,-2.9573,-2.9576,-2.9587,-2.9583,-2.9609,-2.9631,-2.9591,-2.9591,-2.9558,-2.9587,-2.968,-2.954,-2.9539,-2.9565,-2.9765,-2.9796,-2.9814,-2.9652,-2.9654,-2.9656,-2.9766,0,-2.9683,-2.9736,-2.9694,-2.9754,-2.9773,-2.971,-2.9739,-2.9729,-2.9708,-2.9721,-2.9698,-2.9714,-2.9661,-2.966,-2.9687,-2.9663,-2.9719,-2.9655,-2.9675,-2.9676,-2.9677,-2.9832,-2.9864,-2.9968,-2.9779,-2.9782,-2.9783,0,-2.9817,-2.9818,-2.9881,-2.9856,-2.9862,-2.9888,-2.9889,-2.9903,-2.9891,-2.9874,-2.9875,-2.9834,-2.9865,-2.9805,-2.9847,-2.9805,-2.9811,-2.9801,-2.9804,-2.9802,-2.9734,-2.9833,-3.0,-3.0015,-2.9804,-2.9803,-2.9801,0,-2.9938,-2.9956,-2.9995,-2.9993,-2.9965,-2.9985,-2.9975,-2.996,-2.9966,-2.9967,-2.997,-2.9976,-2.9978,-2.9984,-2.9946,-2.9906,-2.9994,-2.993,-2.998,-2.9981,-2.9999,-2.9998,-3.0168,-3.0007,-3.0007,-3.0007,-3.0006,0,-3.0064,-3.0104,-3.0048,-3.0072,-3.0116,-3.0069,-3.0113,-3.0097,-3.0085,-3.0105,-3.0053,-3.0073,-3.0023,-3.0038,-3.001,-3.0049,-3.0051,-3.0038,-3.0029,-3.0041,-3.0043,-3.0042,-3.0033,-3.0011,-3.001,-3.0009,-3.0008,0,-3.0204,-3.0169,-3.0207,-3.0179,-3.0173,-3.0206,-3.0182,-3.0203,-3.018,-3.0206,-3.0209,-3.0172,-3.0188,-3.0152,-3.0163,-3.0143,-3.0199,-3.018,-3.0202,-3.0195,-3.0246,-3.0241,-3.0421,-3.0441,-3.027,-3.0272,-3.0273,0,-3.0285,-3.0315,-3.0289,-3.0299,-3.0291,-3.0307,-3.0312,-3.0268,-3.0276,-3.0266,-3.0289,-3.0301,-3.0307,-3.0335,-3.031,-3.0318,-3.0297,-3.036,-3.0298,-3.0309,-3.0296,-3.0293,-3.0296,-3.0372,-3.0374,-3.0375,-3.0377,0,-3.0432,-3.0414,-3.0422,-3.0426,-3.0434,-3.0435,-3.0432,-3.0443,-3.0396,-3.0408,-3.0423,-3.0428,-3.0439,-3.0451,-3.0453,-3.0444,-3.0403,-3.0397,-3.0409,-3.0419,-3.043,-3.0423,-3.0234,-3.0392,-3.0391,-3.039,-3.0389,-3.0388,-3.0544,-3.0567,-3.0552,-3.0565,-3.0558,-3.0557,-3.0576,-3.0555,-3.0566,-3.0571,-3.0545,-3.0566,-3.0556,-3.0555,-3.055,-3.0566,-3.0537,-3.0555,-3.0559,-3.0563,-3.057,-3.043,-3.0567,-3.0566,-3.0566,-3.0565,-3.0565,0,-3.0686,-3.0674,-3.0686,-3.0683,-3.0694,-3.0655,-3.0651,-3.0661,-3.068,-3.0674,-3.0681,-3.0699,-3.0711,-3.0687,-3.0695,-3.0713,-3.0694,-3.0716,-3.0713,-3.0711,-3.0596,-3.0584,-3.0731,-3.0731,-3.0731,-3.0731,-3.0731,-3.0731,-3.0761,-3.0797,-3.0778,-3.0811,-3.0799,-3.0818,-3.0819,-3.0818,-3.0813,-3.0835,-3.0844,-3.0829,-3.0816,-3.0823,-3.0832,-3.0825,-3.0829,-3.0858,-3.0844,-3.0736,-3.072,-3.0704,-3.0692,-3.086,-3.086,-3.0957,-3.0958,-3.0959]},{"header":{"parameterUnit":"m.s-1","parameterCategory":1,"la1":30.2991,"la2":30.254,"lo1":-89.0895,"lo2":-89.0444,"dy":0.0017,"dx":0.0017,"nx":28,"ny":28,"refTime":"2024-10-15T21:00:00:Z","depth":0,"parameterNumber":3,"parameterNumberName":"V-component_of_WINDS"},"data":[0,0,0,0,0,0,0,0,0,0,0,0,0,0,0,0,0,0,0,0,0,0,0,0,0,0,0,0,0,0,0,0,0,0,0,0,0,0,0,0,0,0,0,0,0,0,0,0,0,0,0,0,0,0,0,0,0,0,-0.6508,-0.6508,0,-0.6514,-0.6514,-0.6514,-0.6536,-0.6536,-0.6537,-0.6537,-0.6542,-0.6542,-0.6541,0,0,0,0,0,0,0,0,0,0,0,0,0,-0.651,-0.651,-0.6508,-0.6508,-0.6508,-0.6514,-0.6514,-0.6514,-0.6536,-0.6536,-0.6537,-0.6537,-0.6542,-0.6542,-0.6541,0,0,0,0,0,0,0,0,0,0,0,0,0,-0.6512,-0.651,-0.6508,-0.6519,-0.652,-0.6514,-0.6514,-0.6514,-0.6535,-0.6536,-0.6537,-0.6538,-0.6542,-0.6542,-0.6541,-0.6524,0,0,-0.654,-0.654,0,0,0,0,0,0,0,0,-0.6512,-0.6512,-0.6517,-0.6518,-0.652,-0.6525,-0.6517,-0.6518,-0.6535,-0.653,-0.6537,-0.6538,-0.6536,-0.6536,-0.6535,-0.6524,-0.6525,-0.654,-0.654,-0.6539,-0.6539,0,0,0,0,0,0,0,-0.6511,-0.6511,-0.651,-0.6517,-0.6519,-0.6523,-0.6524,-0.6517,-0.6528,-0.653,-0.6532,-0.6532,-0.6536,-0.6536,-0.6536,-0.6525,-0.654,-0.654,-0.6539,-0.6539,-0.6497,-0.6496,0,0,0,0,0,0,-0.651,-0.6511,-0.651,-0.651,-0.6517,-0.6522,-0.6523,-0.6522,-0.6529,-0.653,-0.6532,-0.6533,-0.6536,-0.6536,-0.6536,-0.6514,-0.6539,-0.6539,-0.6539,-0.6498,-0.6497,-0.6496,0,0,0,0,0,0,-0.651,-0.651,-0.651,-0.6511,-0.6512,-0.6521,-0.652,-0.6522,-0.6522,-0.653,-0.6532,-0.6529,-0.6537,-0.6537,-0.6526,-0.6515,-0.6539,-0.6538,-0.6499,-0.6497,-0.6496,-0.6472,0,0,0,0,0,0,-0.651,-0.651,-0.6504,-0.6511,-0.6511,-0.6501,-0.6519,-0.6522,-0.6521,-0.6523,-0.6528,-0.6529,-0.6537,-0.6527,-0.6526,-0.6515,-0.6538,-0.65,-0.6498,-0.6496,-0.6474,-0.647,-0.6467,0,0,0,0,0,-0.651,-0.6497,-0.6504,-0.6504,-0.6505,-0.65,-0.65,-0.651,-0.652,-0.6514,-0.6519,-0.6529,-0.6516,-0.6526,-0.6525,-0.6513,-0.65,-0.6498,-0.6497,-0.6475,-0.6471,-0.6467,0,0,0,0,0,0,-0.6489,-0.6498,-0.6506,-0.6495,-0.6497,-0.6504,-0.6497,-0.6506,-0.6504,-0.6506,-0.6518,-0.6519,-0.6506,-0.6509,-0.6519,-0.6495,-0.651,-0.6508,-0.6494,-0.649,-0.6486,-0.6485,-0.6538,0,0,0,0,0,-0.6483,-0.6479,-0.6488,-0.6477,-0.6478,-0.6487,-0.6485,-0.6493,-0.6495,-0.6495,-0.65,-0.65,-0.6496,-0.6493,-0.649,-0.6474,-0.6474,-0.6465,-0.6462,-0.6459,-0.6456,-0.6446,-0.6441,-0.6489,-0.6489,-0.6489,0,0,-0.6471,-0.6476,-0.6473,-0.6473,-0.6475,-0.647,-0.6487,-0.6482,-0.6477,-0.6494,-0.6484,-0.6487,-0.6489,-0.6475,-0.6469,-0.6477,-0.6443,-0.6456,-0.6454,-0.6453,-0.6443,-0.6439,-0.6435,-0.6488,-0.6488,-0.6489,0,0,-0.6445,-0.645,-0.644,-0.6442,-0.6444,-0.645,-0.6448,-0.6453,-0.6456,-0.6446,-0.6458,-0.6453,-0.6446,-0.6446,-0.6445,-0.6416,-0.6425,-0.6415,-0.6396,-0.6386,-0.6382,-0.6378,-0.6366,-0.6362,-0.6413,-0.6413,-0.6413,0,-0.643,-0.6423,-0.6434,-0.6427,-0.6426,-0.6441,-0.643,-0.6431,-0.6432,-0.643,-0.6439,-0.6429,-0.6432,-0.6417,-0.6409,-0.6409,-0.6405,-0.6414,-0.6382,-0.6378,-0.6375,-0.6364,-0.636,-0.6411,-0.6412,-0.6412,-0.6412,0,-0.6402,-0.6397,-0.6389,-0.639,-0.6388,-0.6379,-0.6387,-0.6384,-0.6391,-0.6395,-0.6383,-0.6386,-0.6383,-0.638,-0.6387,-0.6365,-0.637,-0.638,-0.6395,-0.6369,-0.6359,-0.6354,-0.6409,-0.641,-0.641,-0.6411,0,0,-0.6365,-0.637,-0.6367,-0.6366,-0.637,-0.6365,-0.6356,-0.6353,-0.6348,-0.6348,-0.634,-0.6332,-0.6341,-0.634,-0.6347,-0.6337,-0.6312,-0.6348,-0.6348,-0.634,-0.6286,-0.6277,-0.6272,-0.6318,-0.6318,-0.6317,-0.6285,0,-0.6339,-0.6325,-0.6333,-0.6317,-0.6311,-0.6324,-0.6316,-0.6316,-0.6319,-0.6313,-0.6317,-0.6311,-0.6324,-0.6323,-0.6314,-0.6317,-0.6301,-0.632,-0.6309,-0.6308,-0.6307,-0.6267,-0.6258,-0.6228,-0.6281,-0.628,-0.628,0,-0.6308,-0.6306,-0.6289,-0.6291,-0.6289,-0.6281,-0.6277,-0.6273,-0.6272,-0.6275,-0.6272,-0.628,-0.627,-0.6285,-0.6269,-0.6281,-0.6277,-0.6278,-0.6277,-0.6275,-0.6292,-0.6263,-0.6219,-0.6214,-0.6274,-0.6274,-0.6275,0,-0.628,-0.6273,-0.6261,-0.6261,-0.6263,-0.6257,-0.6258,-0.6258,-0.6255,-0.6251,-0.6248,-0.6244,-0.6241,-0.6236,-0.6242,-0.6253,-0.6224,-0.6241,-0.6225,-0.6224,-0.6218,-0.6218,-0.6171,-0.6217,-0.6217,-0.6217,-0.6217,0,-0.625,-0.6239,-0.6248,-0.6241,-0.6228,-0.6237,-0.6223,-0.6225,-0.6224,-0.6216,-0.6228,-0.6219,-0.6228,-0.6221,-0.6225,-0.621,-0.6209,-0.621,-0.6211,-0.6208,-0.6208,-0.6205,-0.6206,-0.6216,-0.6216,-0.6217,-0.6217,0,-0.6217,-0.6223,-0.6211,-0.6213,-0.6214,-0.6204,-0.6205,-0.6198,-0.6201,-0.6191,-0.6189,-0.6194,-0.6185,-0.619,-0.6182,-0.6184,-0.6164,-0.6169,-0.6164,-0.6165,-0.6148,-0.6149,-0.6097,-0.609,-0.6142,-0.6141,-0.6141,0,-0.6197,-0.6188,-0.6189,-0.6185,-0.6185,-0.6177,-0.6174,-0.6182,-0.6177,-0.6174,-0.6166,-0.6159,-0.6153,-0.6138,-0.614,-0.6132,-0.6136,-0.6118,-0.6135,-0.6131,-0.6133,-0.6133,-0.6131,-0.6114,-0.6114,-0.6113,-0.6113,0,-0.616,-0.6163,-0.6157,-0.6152,-0.6147,-0.6143,-0.614,-0.6136,-0.6144,-0.6137,-0.6128,-0.6124,-0.6114,-0.6105,-0.6099,-0.6098,-0.6106,-0.6108,-0.6103,-0.61,-0.6097,-0.6096,-0.6153,-0.6109,-0.6109,-0.6109,-0.611,-0.611,-0.6131,-0.6123,-0.6122,-0.6115,-0.6113,-0.611,-0.6102,-0.6104,-0.6097,-0.6089,-0.6094,-0.6083,-0.608,-0.6072,-0.607,-0.606,-0.6067,-0.6062,-0.606,-0.6058,-0.6055,-0.6099,-0.6059,-0.6059,-0.606,-0.606,-0.606,0,-0.6093,-0.6093,-0.6086,-0.6081,-0.6074,-0.6083,-0.608,-0.6073,-0.6063,-0.606,-0.6054,-0.6042,-0.6033,-0.6034,-0.6025,-0.6017,-0.602,-0.6014,-0.6014,-0.6013,-0.605,-0.6054,-0.6012,-0.6012,-0.6012,-0.6012,-0.6012,-0.6012,-0.6072,-0.6058,-0.6061,-0.6045,-0.6044,-0.6034,-0.6031,-0.6026,-0.6024,-0.601,-0.6003,-0.6004,-0.6001,-0.5992,-0.5984,-0.5984,-0.5979,-0.5972,-0.5973,-0.6007,-0.6011,-0.6016,-0.6019,-0.5971,-0.5971,-0.5937,-0.5937,-0.5937]}]]